This demonstration page uses our WeatherBlox Daily Observations layout. Learn more.

Left ArrowRight Arrow

34.74481, -87.66753

Hourly Observations for December 25, 2018

Temp ( °F °C ) Dew Point ( °F °C ) Humidity (%) Winds ( mph kmh ) Pressure ( in mb ) Visibility ( mi km ) Precip ( " mm )
12:53 am 00:53 Clear 35 1.7 31 -0.6 85 85 E 3 6 30.24 1024 10 16 0.00 0.00
1:53 am 01:53 Clear 35 1.7 32 0 89 89 E 5 7 30.26 1025 10 16 0.00 0.00
2:53 am 02:53 Clear 36 2.2 31 -0.6 82 82 SE 3 6 30.25 1024 10 16 0.00 0.00
3:53 am 03:53 Clear 37 2.8 30 -1.1 76 76 ESE 6 9 30.22 1023 10 16 0.00 0.00
4:53 am 04:53 Partly Cloudy 39 3.9 31 -0.6 73 73 Calm 30.24 1024 10 16 0.00 0.00
5:53 am 05:53 Cloudy 40 4.4 34 1.1 79 79 Calm 30.27 1025 10 16 0.00 0.00
6:53 am 06:53 Cloudy with Light Rain 39 3.9 34 1.1 82 82 E 6 9 30.29 1026 8 13 0.01 0.25
7:53 am 07:53 Cloudy with Light Rain 40 4.4 35 1.7 83 83 ENE 5 7 30.31 1027 10 16 0.00 0.03
8:53 am 08:53 Cloudy with Light Rain 40 4.4 36 2.2 86 86 ESE 6 9 30.33 1027 7 11 0.00 0.03
9:26 am 09:26 Cloudy 41 5 36 2.2 82 82 SE 5 7 30.33 1027 10 16 0.00 0.03
9:53 am 09:53 Cloudy 41 5 36 2.2 82 82 ESE 3 6 30.35 1028 7 11 0.00 0.03
10:53 am 10:53 Cloudy 42 5.6 37 2.8 82 82 SE 6 9 30.33 1027 10 16 0.00 0.00
11:53 am 11:53 Cloudy 43 6.1 37 2.8 80 80 SE 8 13 30.29 1026 10 16 0.00 0.00
12:53 pm 12:53 Cloudy 45 7.2 38 3.3 77 77 SSE 7 11 30.28 1025 10 16 0.00 0.00
1:53 pm 13:53 Cloudy 46 7.8 38 3.3 73 73 SE 5 7 30.27 1025 10 16 0.00 0.00
2:11 pm 14:11 undefined 46 7.8 38 3.3 73 73 undefined N/A 30.27 1025 N/A 0.00 0.00
2:53 pm 14:53 Cloudy 47 8.3 39 3.9 74 74 E 5 7 30.29 1026 10 16 0.00 0.00
3:53 pm 15:53 undefined 47 8.3 39 3.9 74 74 undefined N/A 30.29 1026 N/A 0.00 0.00
4:53 pm 16:53 Clear 47 8.3 40 4.4 77 77 ESE 3 6 30.29 1026 10 16 0.00 0.00
5:00 pm 17:00 Cloudy 47 8.3 40 4.4 77 77 E 3 6 30.30 1026 10 16 0.00 0.00
5:53 pm 17:53 Cloudy 45 7.2 40 4.4 83 83 E 5 7 30.30 1026 10 16 0.00 0.00
6:53 pm 18:53 Cloudy 46 7.8 41 5 83 83 Calm 30.32 1027 10 16 0.00 0.00
7:53 pm 19:53 Cloudy 47 8.3 40 4.4 77 77 E 5 7 30.32 1027 10 16 0.00 0.00
9:01 pm 21:01 Cloudy 47 8.3 41 5 80 80 E 6 9 30.33 1027 10 16 0.00 0.00
9:44 pm 21:44 Cloudy 47 8.3 41 5 80 80 E 5 7 30.33 1027 10 16 0.00 0.00
9:53 pm 21:53 Cloudy 47 8.3 41 5 80 80 E 5 7 30.32 1027 10 16 0.00 0.00
10:53 pm 22:53 Cloudy 47 8.3 41 5 80 80 Calm 30.32 1027 10 16 0.00 0.00
11:53 pm 23:53 Cloudy 47 8.3 41 5 80 80 NE 3 6 30.32 1027 10 16 0.00 0.00

Powered by AerisWeather